Location: Caltech
(34.1382°N, 118.1253°W)
Time: 02:26:07
(UTC-07:00)

Iridium 94 - Visible Passes

Search period start: 16 September 2014 00:00
Search period end: 26 September 2014 00:00
Orbit: 774 x 781 km, 86.4° (Epoch: 15 September)

Date Brightness Start Highest point End Pass type
(mag) Time Alt. Az. Time Alt. Az. Time Alt. Az.
23 Sep 8.3 22:11:01 11° N 22:11:01 11° N 22:11:09 10° N visible
24 Sep 8.0 21:37:23 12° N 21:37:23 12° N 21:37:47 10° N visible
25 Sep 7.9 21:03:44 12° NNE 21:03:44 12° NNE 21:04:02 10° NNE visible
